Regional Weather Roundup
Issued by NWS

Home | Current Version | Previous Version | Text Only | Print | Product List | Glossary Off
Versions: 1 2 3 4 5 6 7 8 9 10 11 12 13 14 15 16 17 18 19 20 21 22 23 24 25 26 27 28 29 30 31 32 33 34 35 36 37 38 39 40 41 42 43 44 45 46 47 48 49 50

000
ASUS43 KMKX 300259
RWRWI

WISCONSIN REGIONAL WEATHER ROUNDUP
NATIONAL WEATHER SERVICE MILWAUKEE/SULLIVAN WI
1000 PM CDT SUN MAR 29 2015

NOTE: "FAIR" INDICATES FEW OR NO CLOUDS BELOW 12,000 FEET WITH NO
SIGNIFICANT WEATHER AND/OR OBSTRUCTIONS TO VISIBILITY.

WIZ001-002-006>008-014>016-023>028-300400-
NORTHWEST WISCONSIN

CITY           SKY/WX    TMP DP  RH WIND       PRES   REMARKS
SUPERIOR ARPT  CLEAR     40  26  55 W6        29.85R
ASHLAND        PTCLDY    36  27  69 W8        29.82R WCI  30
HAYWARD        CLEAR     39  26  59 VRB5      29.85R
SIREN          CLEAR     40  25  54 NW8       29.89R WCI  35
CUMBERLAND     CLEAR     41  25  52 NW12      29.87R
RICE LAKE      CLEAR     41  26  55 W9        29.88R
CHETEK         CLEAR     41  27  58 W9        29.87R
LADYSMITH      MOCLDY    37  30  73 W8        29.85R WCI  31
EAU CLAIRE     NOT AVBL
MENOMONIE      CLEAR     44  26  49 W12       29.89R
NEW RICHMOND   CLEAR     38  26  60 W7        29.91R WCI  33
OSCEOLA        CLEAR     42  27  55 W6        29.94R
$$

WIZ003>005-009-010-017-018-300400-
NORTH CENTRAL WISCONSIN

CITY           SKY/WX    TMP DP  RH WIND       PRES   REMARKS
MANITOWISH WTR CLOUDY    35  30  82 NW8       29.77R WCI  28
ARBOR VITAE    CLOUDY    37  31  81 NW9       29.76R WCI  30
WOODRUFF       CLOUDY    37  31  81 NW9       29.76R WCI  30
RHINELANDER    CLOUDY    36  30  79 NW10      29.78R WCI  28
EAGLE RIVER    CLOUDY    35  29  77 NW13G18   29.74R WCI  26
LAND O LAKES   CLOUDY    36  31  83 NW9G21    29.74R WCI  29
PHILLIPS       CLOUDY    35  30  81 W3        29.80R
TOMAHAWK       CLOUDY    37  30  75 NW10      29.80R WCI  30
MEDFORD        MOCLDY    35  31  83 W6        29.82R WCI  30
MERRILL        MOCLDY    38  31  76 NW8       29.80R WCI  32
$$

WIZ029-030-035-036-043>047-300400-
CENTRAL WISCONSIN

CITY           SKY/WX    TMP DP  RH WIND       PRES   REMARKS
WAUSAU         CLOUDY    38  31  76 NW9       29.80R WCI  31
MOSINEE        CLOUDY    36  32  87 NW9G17    29.83R WCI  29
MARSHFIELD     CLEAR     37  30  75 W7        29.84R WCI  32
STEVENS POINT  MOCLDY    37  31  78 W7        29.83R WCI  32
WAUPACA        PTCLDY    42  31  66 W8        29.82R
WAUTOMA        NOT AVBL
WISC RAPIDS    CLEAR     36  29  75 W5        29.86R WCI  32
CAMP DOUGLAS   NOT AVBL
$$

WIZ011>013-019>022-031-037>040-048>050-300400-
NORTHEAST WISCONSIN

CITY           SKY/WX    TMP DP  RH WIND       PRES   REMARKS
ANTIGO         CLOUDY    36  31  83 NW15G25   29.76R WCI  26
SHAWANO        MOCLDY    40  33  74 W9G16     29.77R WCI  35
OCONTO         CLOUDY    39  32  75 W10G28    29.73R WCI  33
STURGEON BAY   CLOUDY    37  30  75 W13       29.74R WCI  29
GREEN BAY      CLOUDY    39  32  76 W14       29.78R WCI  31
MANITOWOC      NOT AVBL
APPLETON       MOCLDY    39  30  70 W15G23    29.81R WCI  31
CLINTONVILLE   MOCLDY    37  32  81 W8G17     29.79R WCI  31
OSHKOSH        MOCLDY    40  29  64 W10       29.82R WCI  33
$$

WIZ032>034-041-042-053>061-300400-
SOUTHWEST WISCONSIN

CITY           SKY/WX    TMP DP  RH WIND       PRES   REMARKS
LA CROSSE      CLEAR     46  29  51 W10       29.91R
SPARTA         CLEAR     44  27  51 W8        29.89R
VIROQUA        CLEAR     41  30  65 W12       29.89R
BOSCOBEL       CLEAR     46  29  51 W5        29.92R
PRAIRIE DU CHI CLEAR     44  28  51 W15G21    29.93R
PLATTEVILLE    CLEAR     42  32  68 W13       29.92R
$$

WIZ056-057-062-063-064-067-068-300400-
SOUTH CENTRAL WISCONSIN

CITY           SKY/WX    TMP DP  RH WIND       PRES   REMARKS
REEDSBURG      CLEAR     34  33  95 CALM      29.86R
BARABOO/DELLS  PTCLDY    32  31  94 SW3       29.86R
LONE ROCK      NOT AVBL
MINERAL POINT  CLEAR     43  32  65 W13       29.89R
MADISON        MOCLDY    34  30  85 CALM      29.88R
MIDDLETON      MOCLDY    37  33  87 CALM      29.87R
WATERTOWN      PTCLDY    38  35  90 W5        29.86R WCI  34
MONROE         CLEAR     41  34  75 W17       29.89R
JANESVILLE     CLEAR     37  32  81 W5        29.88R WCI  34
$$

WIZ051-052-058>065-066-070>072-300400-
SOUTHEAST WISCONSIN

CITY           SKY/WX    TMP DP  RH WIND       PRES   REMARKS
MILWAUKEE      PTCLDY    43  29  57 NW23G36   29.86R
WAUKESHA       PTCLDY    37  32  81 W16       29.86R WCI  28
MILWAUKEE/TIMM PTCLDY    41  30  65 W20G30    29.84R
RACINE         PTCLDY    43  31  62 NW15G23   29.88R
BURLINGTON     MOCLDY    39  33  81 W5        29.87R
KENOSHA        PTCLDY    41  35  79 W10       29.87R
FOND DU LAC    CLOUDY    41  30  65 NW12      29.84R
SHEBOYGAN      MOCLDY    40  31  70 NW17G24   29.80R WCI  31
WEST BEND      PTCLDY    39  30  70 W17G24    29.82R WCI  30
JUNEAU         PTCLDY    38  32  80 W5        29.87R WCI  34
$$

LSZ147-162-300400-
LAKE SUPERIOR

STATION/POSITION TIME  TEMP    WIND        PRES    WAVE
                       AIR SEA DIR/SP/G            HT/PER
                 (UTC) (F)     (DEG/KT/KT) (MB)    (FT/S)
DEVILS ISLAND    0200   40     280/ 18/ 19 1008.7R
PORT WING        0240   41     270/ 11/ 17 1010.2R
SAXON HARBOR     0200   41     250/  3/ 10 1008.8R
$$

LMZ867-665-643>646-300400-
LAKE MICHIGAN

STATION/POSITION TIME  TEMP    WIND        PRES    WAVE
                       AIR SEA DIR/SP/G            HT/PER
                 (UTC) (F)     (DEG/KT/KT) (MB)    (FT/S)
NORTHPORT PIER   0200   38     290/ 11/ 20 1003.7R
SISTER BAY       0247   36     300/ 17/ 19   N/A
KEWAUNEE LAKESHO 0200   40     290/ 14/ 23 1004.9R
SHEBOYGAN LAKESH 0200   42     290/ 15/ 17 1008.5R
PORT WASHINGTON  0200   43     290/  8/ 15 1009.5R
MILWAUKEE LAKESH 0200   44     290/ 11/ 17   N/A
KENOSHA   LAKESH 0200   45     290/  9/ 18 1010.5R
$$

TC  - TEMPERATURE IN CELSIUS
VSB - VISIBILITY IN STATUTE MILES
WCI - WIND CHILL INDEX
HX  - HEAT INDEX



USA.gov is the U.S. government's official web portal to all federal, state and local government web resources and services.